Time,TemperatureF,DewpointF,PressureIn,WindDirection,WindDirectionDegrees,WindSpeedMPH,WindSpeedGustMPH,Humidity,HourlyPrecipIn,Conditions,Clouds,dailyrainin,SolarRadiationWatts/m^2,SoftwareType,DateUTC
2013-07-16 00:00:00,65.7,49.1,29.92,NE,38,0.0,0.0,55,0.00,,---,0.01,0.00,VWS V14.01,2013-07-16 07:00:00,
2013-07-16 00:02:00,65.7,49.1,29.92,NE,38,0.0,0.0,55,0.00,,---,0.00,0.00,VWS V14.01,2013-07-16 07:02:00,
2013-07-16 00:05:00,65.5,49.4,29.92,NE,38,0.0,0.0,56,0.00,,---,0.00,0.00,VWS V14.01,2013-07-16 07:05:00,
2013-07-16 00:07:00,65.2,49.1,29.92,NE,38,0.0,0.0,56,0.00,,---,0.00,0.00,VWS V14.01,2013-07-16 07:07:00,
2013-07-16 00:10:00,65.2,49.1,29.92,NE,38,0.0,0.0,56,0.00,,---,0.00,0.00,VWS V14.01,2013-07-16 07:10:00,
2013-07-16 00:12:00,65.1,49.0,29.92,NE,38,0.0,0.0,56,0.00,,---,0.00,0.00,VWS V14.01,2013-07-16 07:12:00,
2013-07-16 00:15:00,64.9,49.3,29.92,NE,38,0.0,0.0,57,0.00,,---,0.00,0.00,VWS V14.01,2013-07-16 07:15:00,
2013-07-16 00:17:00,64.8,49.7,29.92,NE,38,0.0,0.0,58,0.00,,---,0.00,0.00,VWS V14.01,2013-07-16 07:17:00,
2013-07-16 00:20:00,64.7,49.1,29.92,NE,38,0.0,0.0,57,0.00,,---,0.00,0.00,VWS V14.01,2013-07-16 07:20:00,
2013-07-16 00:22:00,64.7,49.6,29.92,NE,46,0.0,1.0,58,0.00,,---,0.00,0.00,VWS V14.01,2013-07-16 07:22:00,
2013-07-16 00:25:00,64.6,49.5,29.92,NE,46,0.0,1.0,58,0.00,,---,0.00,0.00,VWS V14.01,2013-07-16 07:25:00,
2013-07-16 00:27:00,64.5,49.9,29.92,NE,46,0.0,0.0,59,0.00,,---,0.00,0.00,VWS V14.01,2013-07-16 07:27:00,
2013-07-16 00:30:00,64.4,49.8,29.92,NE,46,0.0,0.0,59,0.00,,---,0.00,0.00,VWS V14.01,2013-07-16 07:30:00,
2013-07-16 00:32:00,64.4,49.8,29.92,NE,46,0.0,0.0,59,0.00,,---,0.00,0.00,VWS V14.01,2013-07-16 07:32:00,
2013-07-16 00:35:00,64.4,49.8,29.92,NE,46,0.0,0.0,59,0.00,,---,0.00,0.00,VWS V14.01,2013-07-16 07:35:00,
2013-07-16 00:37:00,64.3,49.7,29.92,NE,46,0.0,1.0,59,0.00,,---,0.00,0.00,VWS V14.01,2013-07-16 07:37:00,
2013-07-16 00:40:00,64.2,49.6,29.92,NE,46,0.0,1.0,59,0.00,,---,0.00,0.00,VWS V14.01,2013-07-16 07:40:00,
2013-07-16 00:42:00,64.0,49.8,29.92,NE,46,0.0,1.0,60,0.00,,---,0.00,0.00,VWS V14.01,2013-07-16 07:42:00,
2013-07-16 00:45:00,63.8,49.7,29.92,NE,46,0.0,1.0,60,0.00,,---,0.00,0.00,VWS V14.01,2013-07-16 07:45:00,
2013-07-16 00:47:00,63.6,50.4,29.92,NE,46,0.0,1.0,62,0.00,,---,0.00,0.00,VWS V14.01,2013-07-16 07:47:00,
2013-07-16 00:50:00,63.4,49.7,29.92,NE,46,0.0,1.0,61,0.00,,---,0.00,0.00,VWS V14.01,2013-07-16 07:50:00,
2013-07-16 00:52:00,63.2,50.0,29.92,NE,46,0.0,1.0,62,0.00,,---,0.00,0.00,VWS V14.01,2013-07-16 07:52:00,
2013-07-16 00:55:00,63.3,50.1,29.92,NE,46,1.0,1.0,62,0.00,,---,0.00,0.00,VWS V14.01,2013-07-16 07:55:00,
2013-07-16 00:57:00,63.2,50.0,29.92,NE,46,0.0,1.0,62,0.00,,---,0.00,0.00,VWS V14.01,2013-07-16 07:57:00,
2013-07-16 01:00:00,63.0,50.2,29.92,NE,46,0.0,1.0,63,0.00,,---,0.00,0.00,VWS V14.01,2013-07-16 08:00:00,
2013-07-16 01:02:00,63.0,50.2,29.92,NE,46,0.0,1.0,63,0.00,,---,0.00,0.00,VWS V14.01,2013-07-16 08:02:00,
2013-07-16 01:05:00,62.9,50.1,29.92,NE,46,0.0,1.0,63,0.00,,---,0.00,0.00,VWS V14.01,2013-07-16 08:05:00,
2013-07-16 01:07:00,62.7,49.9,29.92,NE,48,0.0,1.0,63,0.00,,---,0.00,0.00,VWS V14.01,2013-07-16 08:07:00,
2013-07-16 01:10:00,62.7,50.4,29.92,NE,48,0.0,1.0,64,0.00,,---,0.00,0.00,VWS V14.01,2013-07-16 08:10:00,
2013-07-16 01:12:00,62.6,50.3,29.92,NE,48,0.0,1.0,64,0.00,,---,0.00,0.00,VWS V14.01,2013-07-16 08:12:00,
2013-07-16 01:15:00,62.5,50.2,29.92,NE,48,0.0,1.0,64,0.00,,---,0.00,0.00,VWS V14.01,2013-07-16 08:15:00,
2013-07-16 01:17:00,62.4,50.1,29.92,NE,48,0.0,0.0,64,0.00,,---,0.00,0.00,VWS V14.01,2013-07-16 08:17:00,
2013-07-16 01:20:00,62.5,50.2,29.92,NE,48,0.0,0.0,64,0.00,,---,0.00,0.00,VWS V14.01,2013-07-16 08:20:00,
2013-07-16 01:22:00,62.6,49.8,29.92,NE,48,0.0,0.0,63,0.00,,---,0.00,0.00,VWS V14.01,2013-07-16 08:22:00,
2013-07-16 01:25:00,62.4,50.1,29.92,NE,48,0.0,0.0,64,0.00,,---,0.00,0.00,VWS V14.01,2013-07-16 08:25:00,
2013-07-16 01:27:00,62.4,50.1,29.92,NE,48,0.0,0.0,64,0.00,,---,0.00,0.00,VWS V14.01,2013-07-16 08:27:00,
2013-07-16 01:30:00,62.2,50.3,29.92,NE,48,0.0,0.0,65,0.00,,---,0.00,0.00,VWS V14.01,2013-07-16 08:30:00,
2013-07-16 01:32:00,62.2,50.3,29.92,NE,48,0.0,0.0,65,0.00,,---,0.00,0.00,VWS V14.01,2013-07-16 08:32:00,
2013-07-16 01:35:00,62.1,49.8,29.92,NE,48,0.0,0.0,64,0.00,,---,0.00,0.00,VWS V14.01,2013-07-16 08:35:00,
2013-07-16 01:37:00,62.2,49.9,29.92,NE,48,0.0,0.0,64,0.00,,---,0.00,0.00,VWS V14.01,2013-07-16 08:37:00,
2013-07-16 01:40:00,62.0,50.1,29.92,NE,48,0.0,0.0,65,0.00,,---,0.00,0.00,VWS V14.01,2013-07-16 08:40:00,
2013-07-16 01:42:00,61.8,50.3,29.92,NE,48,0.0,0.0,66,0.00,,---,0.00,0.00,VWS V14.01,2013-07-16 08:42:00,
2013-07-16 01:45:00,61.6,49.7,29.92,NE,48,0.0,0.0,65,0.00,,---,0.00,0.00,VWS V14.01,2013-07-16 08:45:00,
2013-07-16 01:47:00,61.6,49.7,29.92,NE,48,0.0,0.0,65,0.00,,---,0.00,0.00,VWS V14.01,2013-07-16 08:47:00,
2013-07-16 01:50:00,61.5,50.0,29.92,NE,48,0.0,0.0,66,0.00,,---,0.00,0.00,VWS V14.01,2013-07-16 08:50:00,
2013-07-16 01:52:00,61.3,49.9,29.92,NE,48,0.0,1.0,66,0.00,,---,0.00,0.00,VWS V14.01,2013-07-16 08:52:00,
2013-07-16 01:55:00,61.4,50.0,29.92,NE,48,0.0,1.0,66,0.00,,---,0.00,0.00,VWS V14.01,2013-07-16 08:55:00,
2013-07-16 01:57:00,61.4,50.0,29.92,NE,48,0.0,1.0,66,0.00,,---,0.00,0.00,VWS V14.01,2013-07-16 08:57:00,
2013-07-16 02:00:00,61.4,50.0,29.92,NE,48,0.0,1.0,66,0.00,,---,0.00,0.00,VWS V14.01,2013-07-16 09:00:00,
2013-07-16 02:02:00,61.5,50.5,29.92,NE,48,1.0,1.0,67,0.00,,---,0.00,0.00,VWS V14.01,2013-07-16 09:02:00,
2013-07-16 02:05:00,61.4,50.4,29.92,NE,48,1.0,1.0,67,0.00,,---,0.00,0.00,VWS V14.01,2013-07-16 09:05:00,
2013-07-16 02:07:00,61.4,50.0,29.92,NE,48,0.0,1.0,66,0.00,,---,0.00,0.00,VWS V14.01,2013-07-16 09:07:00,
2013-07-16 02:10:00,61.4,50.4,29.92,NE,48,0.0,1.0,67,0.00,,---,0.00,0.00,VWS V14.01,2013-07-16 09:10:00,
2013-07-16 02:12:00,61.4,50.0,29.92,NE,48,0.0,0.0,66,0.00,,---,0.00,0.00,VWS V14.01,2013-07-16 09:12:00,
2013-07-16 02:15:00,61.3,50.3,29.91,NE,48,0.0,1.0,67,0.00,,---,0.00,0.00,VWS V14.01,2013-07-16 09:15:00,
2013-07-16 02:17:00,61.1,50.5,29.92,NE,48,0.0,0.0,68,0.00,,---,0.00,0.00,VWS V14.01,2013-07-16 09:17:00,
2013-07-16 02:20:00,60.8,50.6,29.91,NE,48,0.0,0.0,69,0.00,,---,0.00,0.00,VWS V14.01,2013-07-16 09:20:00,
2013-07-16 02:22:00,60.8,50.2,29.91,NE,48,0.0,0.0,68,0.00,,---,0.00,0.00,VWS V14.01,2013-07-16 09:22:00,
2013-07-16 02:25:00,60.9,50.3,29.91,NE,48,0.0,1.0,68,0.00,,---,0.00,0.00,VWS V14.01,2013-07-16 09:25:00,
2013-07-16 02:27:00,60.8,51.0,29.91,NE,48,0.0,0.0,70,0.00,,---,0.00,0.00,VWS V14.01,2013-07-16 09:27:00,
2013-07-16 02:30:00,60.8,51.0,29.91,NE,48,0.0,0.0,70,0.00,,---,0.00,0.00,VWS V14.01,2013-07-16 09:30:00,
2013-07-16 02:32:00,60.9,51.1,29.91,NE,48,0.0,1.0,70,0.00,,---,0.00,0.00,VWS V14.01,2013-07-16 09:32:00,
2013-07-16 02:35:00,60.9,51.1,29.91,NE,50,0.0,1.0,70,0.00,,---,0.00,0.00,VWS V14.01,2013-07-16 09:35:00,
2013-07-16 02:37:00,60.9,50.7,29.91,NE,50,0.0,0.0,69,0.00,,---,0.00,0.00,VWS V14.01,2013-07-16 09:37:00,
2013-07-16 02:40:00,60.9,51.1,29.91,NE,50,0.0,1.0,70,0.00,,---,0.00,0.00,VWS V14.01,2013-07-16 09:40:00,
2013-07-16 02:42:00,61.0,50.8,29.91,NE,50,0.0,0.0,69,0.00,,---,0.00,0.00,VWS V14.01,2013-07-16 09:42:00,
2013-07-16 02:45:00,61.0,51.2,29.91,NE,50,0.0,0.0,70,0.00,,---,0.00,0.00,VWS V14.01,2013-07-16 09:45:00,
2013-07-16 02:47:00,60.9,51.5,29.91,NE,50,0.0,0.0,71,0.00,,---,0.00,0.00,VWS V14.01,2013-07-16 09:47:00,
2013-07-16 02:50:00,60.9,51.5,29.91,NE,50,0.0,0.0,71,0.00,,---,0.00,0.00,VWS V14.01,2013-07-16 09:50:00,
2013-07-16 02:52:00,60.9,51.5,29.91,NE,50,0.0,0.0,71,0.00,,---,0.00,0.00,VWS V14.01,2013-07-16 09:52:00,
2013-07-16 02:55:00,60.9,51.8,29.91,NE,50,0.0,0.0,72,0.00,,---,0.00,0.00,VWS V14.01,2013-07-16 09:55:00,
2013-07-16 02:57:00,60.7,52.0,29.91,NE,50,0.0,1.0,73,0.00,,---,0.00,0.00,VWS V14.01,2013-07-16 09:57:00,
2013-07-16 03:00:00,60.5,51.8,29.91,NE,50,0.0,1.0,73,0.00,,---,0.00,0.00,VWS V14.01,2013-07-16 10:00:00,
2013-07-16 03:02:00,60.4,51.7,29.91,NE,50,0.0,0.0,73,0.00,,---,0.00,0.00,VWS V14.01,2013-07-16 10:02:00,
2013-07-16 03:05:00,60.4,52.1,29.91,NE,50,0.0,0.0,74,0.00,,---,0.00,0.00,VWS V14.01,2013-07-16 10:05:00,
2013-07-16 03:07:00,60.4,52.5,29.91,NE,50,0.0,0.0,75,0.00,,---,0.00,0.00,VWS V14.01,2013-07-16 10:07:00,
2013-07-16 03:10:00,60.3,52.3,29.91,NE,50,0.0,0.0,75,0.00,,---,0.00,0.00,VWS V14.01,2013-07-16 10:10:00,
2013-07-16 03:12:00,60.2,52.3,29.91,NE,50,0.0,0.0,75,0.00,,---,0.00,0.00,VWS V14.01,2013-07-16 10:12:00,
2013-07-16 03:15:00,60.1,52.2,29.91,NE,50,0.0,0.0,75,0.00,,---,0.00,0.00,VWS V14.01,2013-07-16 10:15:00,
2013-07-16 03:17:00,60.0,52.1,29.91,NE,50,0.0,0.0,75,0.00,,---,0.00,0.00,VWS V14.01,2013-07-16 10:17:00,
2013-07-16 03:20:00,59.8,52.6,29.91,NE,50,0.0,1.0,77,0.00,,---,0.00,0.00,VWS V14.01,2013-07-16 10:20:00,
2013-07-16 03:22:00,59.6,52.4,29.91,NE,50,0.0,0.0,77,0.00,,---,0.00,0.00,VWS V14.01,2013-07-16 10:22:00,
2013-07-16 03:25:00,59.3,52.5,29.91,NE,50,0.0,0.0,78,0.00,,---,0.00,0.00,VWS V14.01,2013-07-16 10:25:00,
2013-07-16 03:27:00,59.1,52.3,29.91,NE,50,0.0,0.0,78,0.00,,---,0.00,0.00,VWS V14.01,2013-07-16 10:27:00,
2013-07-16 03:30:00,59.0,52.5,29.91,NE,50,0.0,0.0,79,0.00,,---,0.00,0.00,VWS V14.01,2013-07-16 10:30:00,
2013-07-16 03:32:00,58.9,52.4,29.91,NE,50,0.0,1.0,79,0.00,,---,0.00,0.00,VWS V14.01,2013-07-16 10:32:00,
2013-07-16 03:35:00,59.0,52.5,29.91,NE,50,0.0,1.0,79,0.00,,---,0.00,0.00,VWS V14.01,2013-07-16 10:35:00,
2013-07-16 03:37:00,59.1,52.9,29.91,NE,50,0.0,0.0,80,0.00,,---,0.00,0.00,VWS V14.01,2013-07-16 10:37:00,
2013-07-16 03:40:00,59.0,53.2,29.91,NE,50,0.0,0.0,81,0.00,,---,0.00,0.00,VWS V14.01,2013-07-16 10:40:00,
2013-07-16 03:42:00,59.0,52.8,29.91,NE,50,0.0,2.0,80,0.00,,---,0.00,0.00,VWS V14.01,2013-07-16 10:42:00,
2013-07-16 03:45:00,58.9,52.8,29.91,NE,50,0.0,2.0,80,0.00,,---,0.00,0.00,VWS V14.01,2013-07-16 10:45:00,
2013-07-16 03:47:00,58.8,52.7,29.91,NE,50,0.0,0.0,80,0.00,,---,0.00,0.00,VWS V14.01,2013-07-16 10:47:00,
2013-07-16 03:50:00,58.7,52.6,29.91,NE,50,0.0,0.0,80,0.00,,---,0.00,0.00,VWS V14.01,2013-07-16 10:50:00,
2013-07-16 03:52:00,58.5,52.7,29.91,NE,50,0.0,0.0,81,0.00,,---,0.00,0.00,VWS V14.01,2013-07-16 10:52:00,
2013-07-16 03:55:00,58.4,52.6,29.91,NE,50,0.0,0.0,81,0.00,,---,0.00,0.00,VWS V14.01,2013-07-16 10:55:00,
2013-07-16 03:57:00,58.1,52.0,29.91,NE,50,0.0,0.0,80,0.00,,---,0.00,0.00,VWS V14.01,2013-07-16 10:57:00,
2013-07-16 04:00:00,58.0,51.9,29.91,NE,50,0.0,0.0,80,0.00,,---,0.00,0.00,VWS V14.01,2013-07-16 11:00:00,
2013-07-16 04:02:00,58.0,51.9,29.91,NE,50,0.0,1.0,80,0.00,,---,0.00,0.00,VWS V14.01,2013-07-16 11:02:00,
2013-07-16 04:05:00,58.2,51.7,29.91,NE,51,0.0,1.0,79,0.00,,---,0.00,0.00,VWS V14.01,2013-07-16 11:05:00,
2013-07-16 04:07:00,58.2,51.0,29.91,NE,51,0.0,0.0,77,0.00,,---,0.00,0.00,VWS V14.01,2013-07-16 11:07:00,
2013-07-16 04:10:00,58.1,50.9,29.91,NE,51,0.0,0.0,77,0.00,,---,0.00,0.00,VWS V14.01,2013-07-16 11:10:00,
2013-07-16 04:12:00,58.0,50.5,29.91,NE,51,0.0,0.0,76,0.00,,---,0.00,0.00,VWS V14.01,2013-07-16 11:12:00,
2013-07-16 04:15:00,58.0,50.8,29.91,NE,51,0.0,0.0,77,0.00,,---,0.00,0.00,VWS V14.01,2013-07-16 11:15:00,
2013-07-16 04:17:00,57.8,51.0,29.91,NE,51,0.0,0.0,78,0.00,,---,0.00,0.00,VWS V14.01,2013-07-16 11:17:00,
2013-07-16 04:20:00,57.8,50.7,29.91,NE,51,0.0,0.0,77,0.00,,---,0.00,0.00,VWS V14.01,2013-07-16 11:20:00,
2013-07-16 04:22:00,57.8,50.7,29.91,NE,51,0.0,0.0,77,0.00,,---,0.00,0.00,VWS V14.01,2013-07-16 11:22:00,
2013-07-16 04:25:00,57.9,51.1,29.91,NE,51,0.0,0.0,78,0.01,,---,0.01,0.00,VWS V14.01,2013-07-16 11:25:00,
2013-07-16 04:27:00,58.0,51.2,29.91,NE,51,0.0,0.0,78,0.01,,---,0.01,0.00,VWS V14.01,2013-07-16 11:27:00,
2013-07-16 04:30:00,57.9,51.4,29.91,NE,51,0.0,0.0,79,0.02,,---,0.02,0.00,VWS V14.01,2013-07-16 11:30:00,
2013-07-16 04:32:00,57.8,51.3,29.91,NE,51,0.0,0.0,79,0.03,,---,0.03,0.00,VWS V14.01,2013-07-16 11:32:00,
2013-07-16 04:35:00,57.8,51.3,29.91,NE,51,0.0,0.0,79,0.03,,---,0.03,0.00,VWS V14.01,2013-07-16 11:35:00,
2013-07-16 04:37:00,57.9,51.1,29.91,NE,51,0.0,0.0,78,0.03,,---,0.03,0.00,VWS V14.01,2013-07-16 11:37:00,
2013-07-16 04:40:00,58.0,50.8,29.91,NE,51,0.0,0.0,77,0.03,,---,0.03,0.00,VWS V14.01,2013-07-16 11:40:00,
2013-07-16 04:42:00,58.1,50.9,29.91,NE,51,0.0,1.0,77,0.03,,---,0.03,0.00,VWS V14.01,2013-07-16 11:42:00,
2013-07-16 04:45:00,58.2,50.7,29.91,NE,51,0.0,1.0,76,0.03,,---,0.03,0.00,VWS V14.01,2013-07-16 11:45:00,
2013-07-16 04:47:00,58.2,50.7,29.91,NE,51,0.0,0.0,76,0.03,,---,0.03,0.00,VWS V14.01,2013-07-16 11:47:00,
2013-07-16 04:50:00,58.3,50.8,29.91,NE,51,0.0,0.0,76,0.03,,---,0.03,0.00,VWS V14.01,2013-07-16 11:50:00,
2013-07-16 04:52:00,58.3,50.8,29.91,NE,51,0.0,0.0,76,0.03,,---,0.03,0.00,VWS V14.01,2013-07-16 11:52:00,
2013-07-16 04:55:00,58.2,50.7,29.91,NE,51,0.0,0.0,76,0.03,,---,0.03,0.00,VWS V14.01,2013-07-16 11:55:00,
2013-07-16 04:57:00,58.1,50.6,29.91,NE,51,0.0,0.0,76,0.03,,---,0.03,0.00,VWS V14.01,2013-07-16 11:57:00,
2013-07-16 05:00:00,58.0,50.8,29.91,NE,51,1.0,1.0,77,0.03,,---,0.03,0.00,VWS V14.01,2013-07-16 12:00:00,
2013-07-16 05:02:00,57.7,50.5,29.91,NE,51,0.0,1.0,77,0.03,,---,0.03,0.00,VWS V14.01,2013-07-16 12:02:00,
2013-07-16 05:05:00,57.5,50.7,29.91,NE,51,0.0,1.0,78,0.03,,---,0.03,0.00,VWS V14.01,2013-07-16 12:05:00,
2013-07-16 05:07:00,57.4,50.6,29.91,NE,51,0.0,0.0,78,0.03,,---,0.03,0.00,VWS V14.01,2013-07-16 12:07:00,
2013-07-16 05:10:00,57.3,50.8,29.90,NE,51,0.0,0.0,79,0.03,,---,0.03,0.00,VWS V14.01,2013-07-16 12:10:00,
2013-07-16 05:12:00,57.3,50.8,29.91,NE,51,0.0,0.0,79,0.03,,---,0.03,0.00,VWS V14.01,2013-07-16 12:12:00,
2013-07-16 05:15:00,57.3,50.8,29.90,NE,51,0.0,0.0,79,0.03,,---,0.03,0.00,VWS V14.01,2013-07-16 12:15:00,
2013-07-16 05:17:00,57.2,50.8,29.90,NE,51,0.0,0.0,79,0.03,,---,0.03,0.00,VWS V14.01,2013-07-16 12:17:00,
2013-07-16 05:20:00,57.0,50.9,29.90,NE,51,0.0,0.0,80,0.03,,---,0.03,0.00,VWS V14.01,2013-07-16 12:20:00,
2013-07-16 05:22:00,56.7,50.9,29.90,NE,51,0.0,1.0,81,0.03,,---,0.03,0.00,VWS V14.01,2013-07-16 12:22:00,
2013-07-16 05:25:00,56.5,50.8,29.90,NE,51,0.0,1.0,81,0.03,,---,0.03,0.00,VWS V14.01,2013-07-16 12:25:00,
2013-07-16 05:27:00,56.8,51.0,29.90,NE,55,2.0,2.0,81,0.02,,---,0.03,0.00,VWS V14.01,2013-07-16 12:27:00,
2013-07-16 05:30:00,57.1,51.3,29.90,ENE,57,0.0,2.0,81,0.02,,---,0.03,5.00,VWS V14.01,2013-07-16 12:30:00,
2013-07-16 05:32:00,57.0,51.2,29.90,ENE,57,0.0,0.0,81,0.01,,---,0.03,5.00,VWS V14.01,2013-07-16 12:32:00,
2013-07-16 05:35:00,57.0,51.2,29.90,ENE,57,0.0,1.0,81,0.01,,---,0.03,7.00,VWS V14.01,2013-07-16 12:35:00,
2013-07-16 05:37:00,57.2,51.4,29.90,ENE,57,0.0,0.0,81,0.00,,---,0.03,7.00,VWS V14.01,2013-07-16 12:37:00,
2013-07-16 05:40:00,57.2,51.1,29.90,ENE,57,0.0,0.0,80,0.00,,---,0.03,7.00,VWS V14.01,2013-07-16 12:40:00,
2013-07-16 05:42:00,57.2,51.1,29.90,ENE,57,0.0,1.0,80,0.00,,---,0.03,9.00,VWS V14.01,2013-07-16 12:42:00,
2013-07-16 05:45:00,57.4,51.3,29.90,ENE,58,1.0,1.0,80,0.00,,---,0.03,9.00,VWS V14.01,2013-07-16 12:45:00,
2013-07-16 05:47:00,57.3,51.5,29.90,ENE,57,0.0,1.0,81,0.00,,---,0.03,11.00,VWS V14.01,2013-07-16 12:47:00,
2013-07-16 05:50:00,57.1,51.3,29.90,ENE,58,0.0,1.0,81,0.00,,---,0.03,11.00,VWS V14.01,2013-07-16 12:50:00,
2013-07-16 05:52:00,57.0,51.6,29.90,ENE,58,1.0,1.0,82,0.00,,---,0.03,12.00,VWS V14.01,2013-07-16 12:52:00,
2013-07-16 05:55:00,57.0,51.6,29.90,ENE,66,0.0,2.0,82,0.00,,---,0.03,14.00,VWS V14.01,2013-07-16 12:55:00,
2013-07-16 05:57:00,56.9,51.8,29.90,ENE,65,0.0,1.0,83,0.00,,---,0.03,14.00,VWS V14.01,2013-07-16 12:57:00,
2013-07-16 06:00:00,56.9,51.8,29.90,ENE,65,0.0,1.0,83,0.00,,---,0.03,14.00,VWS V14.01,2013-07-16 13:00:00,
2013-07-16 06:02:00,57.1,52.3,29.90,East,85,0.0,1.0,84,0.00,,---,0.03,16.00,VWS V14.01,2013-07-16 13:02:00,
2013-07-16 06:05:00,57.1,52.3,29.90,East,85,0.0,1.0,84,0.00,,---,0.03,16.00,VWS V14.01,2013-07-16 13:05:00,
2013-07-16 06:07:00,57.1,52.3,29.90,East,84,0.0,1.0,84,0.00,,---,0.03,18.00,VWS V14.01,2013-07-16 13:07:00,
2013-07-16 06:10:00,57.2,52.7,29.90,ENE,76,1.0,2.0,85,0.00,,---,0.03,18.00,VWS V14.01,2013-07-16 13:10:00,
2013-07-16 06:12:00,57.4,52.9,29.91,ENE,76,0.0,1.0,85,0.00,,---,0.03,19.00,VWS V14.01,2013-07-16 13:12:00,
2013-07-16 06:15:00,57.4,52.9,29.90,ENE,76,0.0,1.0,85,0.00,,---,0.03,19.00,VWS V14.01,2013-07-16 13:15:00,
2013-07-16 06:17:00,57.3,52.8,29.90,ENE,76,0.0,1.0,85,0.00,,---,0.03,19.00,VWS V14.01,2013-07-16 13:17:00,
2013-07-16 06:20:00,57.4,52.9,29.90,ENE,77,0.0,1.0,85,0.00,,---,0.03,21.00,VWS V14.01,2013-07-16 13:20:00,
2013-07-16 06:22:00,57.4,53.2,29.90,ENE,77,0.0,0.0,86,0.00,,---,0.03,21.00,VWS V14.01,2013-07-16 13:22:00,
2013-07-16 06:25:00,57.5,53.0,29.90,ENE,77,0.0,1.0,85,0.00,,---,0.03,21.00,VWS V14.01,2013-07-16 13:25:00,
2013-07-16 06:27:00,57.6,53.1,29.90,ENE,76,0.0,0.0,85,0.00,,---,0.03,23.00,VWS V14.01,2013-07-16 13:27:00,
2013-07-16 06:30:00,57.7,53.2,29.90,ENE,77,0.0,0.0,85,0.00,,---,0.03,23.00,VWS V14.01,2013-07-16 13:30:00,
2013-07-16 06:32:00,57.9,52.8,29.90,ENE,76,0.0,2.0,83,0.00,,---,0.03,25.00,VWS V14.01,2013-07-16 13:32:00,
2013-07-16 06:35:00,58.2,53.1,29.90,ENE,76,0.0,2.0,83,0.00,,---,0.03,25.00,VWS V14.01,2013-07-16 13:35:00,
2013-07-16 06:37:00,58.5,53.0,29.90,East,85,1.0,2.0,82,0.00,,---,0.03,25.00,VWS V14.01,2013-07-16 13:37:00,
2013-07-16 06:40:00,58.7,52.9,29.90,East,86,0.0,2.0,81,0.00,,---,0.03,26.00,VWS V14.01,2013-07-16 13:40:00,
2013-07-16 06:42:00,58.7,52.6,29.90,East,81,2.0,5.0,80,0.00,,---,0.03,26.00,VWS V14.01,2013-07-16 13:42:00,
2013-07-16 06:45:00,58.9,52.8,29.90,East,96,0.0,5.0,80,0.00,,---,0.03,26.00,VWS V14.01,2013-07-16 13:45:00,
2013-07-16 06:47:00,59.0,52.8,29.90,East,96,0.0,0.0,80,0.00,,---,0.03,28.00,VWS V14.01,2013-07-16 13:47:00,
2013-07-16 06:50:00,58.9,52.8,29.90,East,96,1.0,1.0,80,0.00,,---,0.03,28.00,VWS V14.01,2013-07-16 13:50:00,
2013-07-16 06:52:00,59.1,52.9,29.90,East,96,0.0,2.0,80,0.00,,---,0.03,28.00,VWS V14.01,2013-07-16 13:52:00,
2013-07-16 06:55:00,59.1,52.6,29.90,East,96,1.0,2.0,79,0.00,,---,0.03,28.00,VWS V14.01,2013-07-16 13:55:00,
2013-07-16 06:57:00,59.2,52.7,29.90,East,96,1.0,2.0,79,0.00,,---,0.03,30.00,VWS V14.01,2013-07-16 13:57:00,
2013-07-16 07:00:00,59.4,52.9,29.90,ESE,109,0.0,2.0,79,0.00,,---,0.03,107.00,VWS V14.01,2013-07-16 14:00:00,
2013-07-16 07:02:00,59.5,53.0,29.90,ESE,109,0.0,0.0,79,0.00,,---,0.03,149.00,VWS V14.01,2013-07-16 14:02:00,
2013-07-16 07:05:00,59.7,53.2,29.90,ESE,110,0.0,0.0,79,0.00,,---,0.03,156.00,VWS V14.01,2013-07-16 14:05:00,
2013-07-16 07:07:00,60.0,53.1,29.90,ESE,110,0.0,1.0,78,0.00,,---,0.03,165.00,VWS V14.01,2013-07-16 14:07:00,
2013-07-16 07:10:00,60.4,53.2,29.90,East,98,1.0,2.0,77,0.00,,---,0.03,172.00,VWS V14.01,2013-07-16 14:10:00,
2013-07-16 07:12:00,60.9,53.7,29.90,East,98,1.0,1.0,77,0.00,,---,0.03,179.00,VWS V14.01,2013-07-16 14:12:00,
2013-07-16 07:15:00,61.1,53.5,29.90,East,98,0.0,2.0,76,0.00,,---,0.03,188.00,VWS V14.01,2013-07-16 14:15:00,
2013-07-16 07:17:00,61.3,53.7,29.90,East,98,0.0,1.0,76,0.00,,---,0.03,197.00,VWS V14.01,2013-07-16 14:17:00,
2013-07-16 07:20:00,61.4,53.4,29.90,East,98,0.0,1.0,75,0.00,,---,0.03,200.00,VWS V14.01,2013-07-16 14:20:00,
2013-07-16 07:22:00,61.7,53.7,29.90,East,80,1.0,2.0,75,0.00,,---,0.03,213.00,VWS V14.01,2013-07-16 14:22:00,
2013-07-16 07:25:00,62.0,53.6,29.90,East,80,0.0,2.0,74,0.00,,---,0.03,220.00,VWS V14.01,2013-07-16 14:25:00,
2013-07-16 07:27:00,62.1,53.7,29.90,East,80,1.0,2.0,74,0.00,,---,0.03,225.00,VWS V14.01,2013-07-16 14:27:00,
2013-07-16 07:30:00,62.4,54.0,29.90,East,80,0.0,2.0,74,0.00,,---,0.03,232.00,VWS V14.01,2013-07-16 14:30:00,
2013-07-16 07:32:00,62.5,54.5,29.90,East,80,0.0,0.0,75,0.00,,---,0.03,239.00,VWS V14.01,2013-07-16 14:32:00,
2013-07-16 07:35:00,62.7,54.3,29.90,East,80,0.0,0.0,74,0.00,,---,0.03,246.00,VWS V14.01,2013-07-16 14:35:00,
2013-07-16 07:37:00,62.9,54.5,29.90,ENE,75,1.0,1.0,74,0.00,,---,0.03,251.00,VWS V14.01,2013-07-16 14:37:00,
2013-07-16 07:40:00,63.1,53.9,29.90,North,349,5.0,5.0,72,0.00,,---,0.03,260.00,VWS V14.01,2013-07-16 14:40:00,
2013-07-16 07:42:00,63.3,53.8,29.90,NNE,26,0.0,5.0,71,0.00,,---,0.03,267.00,VWS V14.01,2013-07-16 14:42:00,
2013-07-16 07:45:00,63.4,53.8,29.90,NE,46,0.0,5.0,71,0.00,,---,0.03,276.00,VWS V14.01,2013-07-16 14:45:00,
2013-07-16 07:47:00,63.6,54.4,29.90,NE,46,0.0,1.0,72,0.00,,---,0.03,281.00,VWS V14.01,2013-07-16 14:47:00,
2013-07-16 07:50:00,63.7,54.5,29.90,North,355,0.0,3.0,72,0.00,,---,0.03,287.00,VWS V14.01,2013-07-16 14:50:00,
2013-07-16 07:52:00,63.6,54.8,29.90,North,355,0.0,1.0,73,0.00,,---,0.03,294.00,VWS V14.01,2013-07-16 14:52:00,
2013-07-16 07:55:00,63.6,54.0,29.89,NNE,32,1.0,3.0,71,0.00,,---,0.03,299.00,VWS V14.01,2013-07-16 14:55:00,
2013-07-16 07:57:00,63.8,54.2,29.90,NNE,27,1.0,2.0,71,0.00,,---,0.03,308.00,VWS V14.01,2013-07-16 14:57:00,
2013-07-16 08:00:00,63.8,54.2,29.89,NNE,21,0.0,2.0,71,0.00,,---,0.03,315.00,VWS V14.01,2013-07-16 15:00:00,
2013-07-16 08:02:00,63.8,54.6,29.89,NNE,21,0.0,2.0,72,0.00,,---,0.03,323.00,VWS V14.01,2013-07-16 15:02:00,
2013-07-16 08:05:00,64.1,54.5,29.89,NE,38,2.0,4.0,71,0.00,,---,0.03,327.00,VWS V14.01,2013-07-16 15:05:00,
2013-07-16 08:07:00,64.4,54.4,29.89,NE,34,0.0,2.0,70,0.00,,---,0.03,338.00,VWS V14.01,2013-07-16 15:07:00,
2013-07-16 08:10:00,64.7,54.7,29.89,NNE,30,2.0,3.0,70,0.00,,---,0.03,345.00,VWS V14.01,2013-07-16 15:10:00,
2013-07-16 08:12:00,64.9,54.5,29.89,NE,42,0.0,4.0,69,0.00,,---,0.03,350.00,VWS V14.01,2013-07-16 15:12:00,
2013-07-16 08:13:00,64.9,54.5,29.89,NNE,24,2.0,4.0,69,0.00,,---,0.03,353.00,VWS V14.01,2013-07-16 15:13:00,
2013-07-16 08:15:00,65.2,54.8,29.89,NNE,20,2.0,4.0,69,0.00,,---,0.03,357.00,VWS V14.01,2013-07-16 15:15:00,
2013-07-16 08:17:00,65.7,54.9,29.89,ENE,73,1.0,5.0,68,0.00,,---,0.03,366.00,VWS V14.01,2013-07-16 15:17:00,
2013-07-16 08:20:00,65.9,55.0,29.89,NE,53,1.0,5.0,68,0.00,,---,0.03,371.00,VWS V14.01,2013-07-16 15:20:00,
2013-07-16 08:22:00,66.1,55.2,29.89,NE,52,0.0,3.0,68,0.00,,---,0.03,378.00,VWS V14.01,2013-07-16 15:22:00,
2013-07-16 08:25:00,66.3,55.0,29.89,NE,51,1.0,3.0,67,0.00,,---,0.03,385.00,VWS V14.01,2013-07-16 15:25:00,
2013-07-16 08:28:00,66.6,54.9,29.89,NE,41,1.0,5.0,66,0.00,,---,0.03,394.00,VWS V14.01,2013-07-16 15:28:00,
2013-07-16 08:30:00,66.7,55.4,29.89,NE,51,3.0,5.0,67,0.00,,---,0.03,397.00,VWS V14.01,2013-07-16 15:30:00,
2013-07-16 08:33:00,66.9,55.2,29.89,NNE,31,3.0,4.0,66,0.00,,---,0.03,408.00,VWS V14.01,2013-07-16 15:33:00,
2013-07-16 08:35:00,67.1,55.4,29.89,NNE,26,2.0,4.0,66,0.00,,---,0.03,411.00,VWS V14.01,2013-07-16 15:35:00,
2013-07-16 08:38:00,67.4,55.2,29.88,East,80,0.0,7.0,65,0.00,,---,0.03,420.00,VWS V14.01,2013-07-16 15:38:00,
2013-07-16 08:40:00,67.6,55.8,29.88,North,5,6.0,7.0,66,0.00,,---,0.03,425.00,VWS V14.01,2013-07-16 15:40:00,
2013-07-16 08:43:00,68.0,55.8,29.88,NE,46,1.0,6.0,65,0.00,,---,0.03,436.00,VWS V14.01,2013-07-16 15:43:00,
2013-07-16 08:45:00,68.2,55.6,29.88,NNE,21,4.0,6.0,64,0.00,,---,0.03,439.00,VWS V14.01,2013-07-16 15:45:00,
2013-07-16 08:48:00,68.6,55.1,29.88,NE,55,0.0,7.0,62,0.00,,---,0.03,448.00,VWS V14.01,2013-07-16 15:48:00,
2013-07-16 08:50:00,68.7,55.2,29.88,NE,36,1.0,7.0,62,0.00,,---,0.03,454.00,VWS V14.01,2013-07-16 15:50:00,
2013-07-16 08:53:00,68.9,54.5,29.87,NNE,13,4.0,8.0,60,0.00,,---,0.03,462.00,VWS V14.01,2013-07-16 15:53:00,
2013-07-16 08:55:00,69.0,55.0,29.88,North,9,2.0,8.0,61,0.00,,---,0.03,466.00,VWS V14.01,2013-07-16 15:55:00,
2013-07-16 08:58:00,69.3,54.8,29.87,ENE,73,2.0,9.0,60,0.00,,---,0.03,475.00,VWS V14.01,2013-07-16 15:58:00,
2013-07-16 09:00:00,69.4,54.5,29.87,ENE,69,2.0,9.0,59,0.00,,---,0.03,478.00,VWS V14.01,2013-07-16 16:00:00,
2013-07-16 09:03:00,69.8,54.8,29.88,ENE,62,3.0,7.0,59,0.00,,---,0.03,485.00,VWS V14.01,2013-07-16 16:03:00,
2013-07-16 09:05:00,69.9,54.5,29.88,NW,308,3.0,8.0,58,0.00,,---,0.03,490.00,VWS V14.01,2013-07-16 16:05:00,
2013-07-16 09:08:00,70.0,55.0,29.88,NE,42,5.0,5.0,59,0.00,,---,0.03,501.00,VWS V14.01,2013-07-16 16:08:00,
2013-07-16 09:10:00,70.1,54.7,29.88,NE,46,2.0,5.0,58,0.00,,---,0.03,503.00,VWS V14.01,2013-07-16 16:10:00,
2013-07-16 09:13:00,70.3,54.8,29.88,NNE,21,1.0,6.0,58,0.00,,---,0.03,513.00,VWS V14.01,2013-07-16 16:13:00,
2013-07-16 09:15:00,70.3,55.3,29.87,ENE,67,1.0,6.0,59,0.00,,---,0.03,517.00,VWS V14.01,2013-07-16 16:15:00,
2013-07-16 09:18:00,70.9,54.9,29.87,NE,56,5.0,8.0,57,0.00,,---,0.03,526.00,VWS V14.01,2013-07-16 16:18:00,
2013-07-16 09:20:00,70.9,54.4,29.87,NNE,25,1.0,8.0,56,0.00,,---,0.03,529.00,VWS V14.01,2013-07-16 16:20:00,
2013-07-16 09:23:00,71.0,55.0,29.87,ENE,64,2.0,8.0,57,0.00,,---,0.03,538.00,VWS V14.01,2013-07-16 16:23:00,
2013-07-16 09:25:00,71.1,56.1,29.87,NNE,26,1.0,8.0,59,0.00,,---,0.03,543.00,VWS V14.01,2013-07-16 16:25:00,
2013-07-16 09:28:00,71.5,55.0,29.87,NNE,21,7.0,7.0,56,0.00,,---,0.03,552.00,VWS V14.01,2013-07-16 16:28:00,
2013-07-16 09:30:00,71.5,55.0,29.87,North,9,5.0,7.0,56,0.00,,---,0.03,555.00,VWS V14.01,2013-07-16 16:30:00,
2013-07-16 09:33:00,71.9,54.4,29.87,North,355,6.0,8.0,54,0.00,,---,0.03,566.00,VWS V14.01,2013-07-16 16:33:00,
2013-07-16 09:35:00,71.9,54.9,29.87,NE,52,4.0,8.0,55,0.00,,---,0.03,568.00,VWS V14.01,2013-07-16 16:35:00,
2013-07-16 09:38:00,72.1,54.6,29.87,North,355,3.0,7.0,54,0.00,,---,0.03,578.00,VWS V14.01,2013-07-16 16:38:00,
2013-07-16 09:40:00,72.2,54.7,29.88,NNE,22,4.0,7.0,54,0.00,,---,0.03,580.00,VWS V14.01,2013-07-16 16:40:00,
2013-07-16 09:43:00,72.5,54.9,29.88,NNE,30,3.0,6.0,54,0.00,,---,0.03,591.00,VWS V14.01,2013-07-16 16:43:00,
2013-07-16 09:45:00,72.6,55.5,29.88,NNE,29,2.0,6.0,55,0.00,,---,0.03,591.00,VWS V14.01,2013-07-16 16:45:00,
2013-07-16 09:48:00,72.9,54.8,29.87,NNE,29,3.0,7.0,53,0.00,,---,0.03,601.00,VWS V14.01,2013-07-16 16:48:00,
2013-07-16 09:50:00,73.0,54.9,29.87,ENE,61,4.0,7.0,53,0.00,,---,0.03,605.00,VWS V14.01,2013-07-16 16:50:00,
2013-07-16 09:53:00,73.5,55.3,29.88,North,355,2.0,5.0,53,0.00,,---,0.03,613.00,VWS V14.01,2013-07-16 16:53:00,
2013-07-16 09:55:00,73.5,55.3,29.87,North,5,3.0,5.0,53,0.00,,---,0.03,617.00,VWS V14.01,2013-07-16 16:55:00,
2013-07-16 09:58:00,73.9,55.7,29.87,NNW,338,3.0,6.0,53,0.00,,---,0.03,626.00,VWS V14.01,2013-07-16 16:58:00,
2013-07-16 10:00:00,74.0,56.3,29.87,ENE,59,1.0,6.0,54,0.00,,---,0.03,631.00,VWS V14.01,2013-07-16 17:00:00,
2013-07-16 10:03:00,73.9,56.7,29.87,WNW,290,4.0,6.0,55,0.00,,---,0.03,636.00,VWS V14.01,2013-07-16 17:03:00,
2013-07-16 10:05:00,73.7,57.0,29.87,NNW,330,4.0,6.0,56,0.00,,---,0.03,642.00,VWS V14.01,2013-07-16 17:05:00,
2013-07-16 10:08:00,73.4,57.3,29.87,NW,309,7.0,7.0,57,0.00,,---,0.03,647.00,VWS V14.01,2013-07-16 17:08:00,
2013-07-16 10:10:00,73.3,57.2,29.87,NNE,13,5.0,7.0,57,0.00,,---,0.03,649.00,VWS V14.01,2013-07-16 17:10:00,
2013-07-16 10:13:00,73.1,57.5,29.87,NNW,330,4.0,7.0,58,0.00,,---,0.03,659.00,VWS V14.01,2013-07-16 17:13:00,
2013-07-16 10:15:00,73.2,58.0,29.87,NNW,327,3.0,7.0,59,0.00,,---,0.03,661.00,VWS V14.01,2013-07-16 17:15:00,
2013-07-16 10:18:00,73.7,57.0,29.87,NW,317,4.0,8.0,56,0.00,,---,0.03,670.00,VWS V14.01,2013-07-16 17:18:00,
2013-07-16 10:20:00,73.8,56.6,29.87,WNW,298,4.0,8.0,55,0.00,,---,0.03,671.00,VWS V14.01,2013-07-16 17:20:00,
2013-07-16 10:23:00,73.9,57.2,29.87,NNW,327,4.0,7.0,56,0.00,,---,0.03,680.00,VWS V14.01,2013-07-16 17:23:00,
2013-07-16 10:25:00,73.9,58.2,29.87,NW,304,7.0,7.0,58,0.00,,---,0.03,682.00,VWS V14.01,2013-07-16 17:25:00,
2013-07-16 10:28:00,74.0,57.8,29.87,WNW,282,1.0,7.0,57,0.00,,---,0.03,693.00,VWS V14.01,2013-07-16 17:28:00,
2013-07-16 10:30:00,74.2,57.5,29.87,West,276,2.0,7.0,56,0.00,,---,0.03,693.00,VWS V14.01,2013-07-16 17:30:00,
2013-07-16 10:33:00,74.6,56.9,29.87,WNW,285,5.0,6.0,54,0.00,,---,0.03,700.00,VWS V14.01,2013-07-16 17:33:00,
2013-07-16 10:35:00,74.5,56.8,29.87,NW,325,4.0,6.0,54,0.00,,---,0.03,703.00,VWS V14.01,2013-07-16 17:35:00,
2013-07-16 10:38:00,74.5,56.8,29.87,WNW,302,6.0,8.0,54,0.00,,---,0.03,710.00,VWS V14.01,2013-07-16 17:38:00,
2013-07-16 10:40:00,74.6,56.4,29.87,NW,321,3.0,8.0,53,0.00,,---,0.03,712.00,VWS V14.01,2013-07-16 17:40:00,
2013-07-16 10:43:00,75.1,56.8,29.87,NW,322,4.0,8.0,53,0.00,,---,0.03,721.00,VWS V14.01,2013-07-16 17:43:00,
2013-07-16 10:45:00,75.1,55.8,29.87,NW,309,0.0,8.0,51,0.00,,---,0.03,721.00,VWS V14.01,2013-07-16 17:45:00,
2013-07-16 10:48:00,75.1,57.3,29.87,NNW,327,7.0,8.0,54,0.00,,---,0.03,729.00,VWS V14.01,2013-07-16 17:48:00,
2013-07-16 10:50:00,75.1,56.3,29.87,North,355,4.0,8.0,52,0.00,,---,0.03,729.00,VWS V14.01,2013-07-16 17:50:00,
2013-07-16 10:53:00,75.1,56.8,29.87,West,281,4.0,8.0,53,0.00,,---,0.03,740.00,VWS V14.01,2013-07-16 17:53:00,
2013-07-16 10:55:00,75.1,56.3,29.87,NW,319,5.0,8.0,52,0.00,,---,0.03,740.00,VWS V14.01,2013-07-16 17:55:00,
2013-07-16 10:58:00,75.4,56.0,29.86,NNW,329,8.0,8.0,51,0.00,,---,0.03,747.00,VWS V14.01,2013-07-16 17:58:00,
2013-07-16 11:00:00,75.5,56.1,29.87,NW,312,7.0,8.0,51,0.00,,---,0.03,749.00,VWS V14.01,2013-07-16 18:00:00,
2013-07-16 11:03:00,75.6,56.2,29.86,NNW,342,4.0,8.0,51,0.00,,---,0.03,756.00,VWS V14.01,2013-07-16 18:03:00,
2013-07-16 11:05:00,75.7,57.9,29.87,NW,326,4.0,8.0,54,0.00,,---,0.03,758.00,VWS V14.01,2013-07-16 18:05:00,
2013-07-16 11:08:00,76.4,56.4,29.87,NW,324,2.0,5.0,50,0.00,,---,0.03,765.00,VWS V14.01,2013-07-16 18:08:00,
2013-07-16 11:10:00,76.5,57.6,29.87,NW,326,3.0,5.0,52,0.00,,---,0.03,766.00,VWS V14.01,2013-07-16 18:10:00,
2013-07-16 11:13:00,76.8,57.9,29.87,WNW,286,0.0,5.0,52,0.00,,---,0.03,773.00,VWS V14.01,2013-07-16 18:13:00,
2013-07-16 11:15:00,76.8,57.3,29.87,NNW,338,2.0,5.0,51,0.00,,---,0.03,777.00,VWS V14.01,2013-07-16 18:15:00,
2013-07-16 11:18:00,77.2,56.6,29.87,NW,315,4.0,8.0,49,0.00,,---,0.03,782.00,VWS V14.01,2013-07-16 18:18:00,
2013-07-16 11:20:00,77.2,58.2,29.87,NW,319,4.0,8.0,52,0.00,,---,0.03,782.00,VWS V14.01,2013-07-16 18:20:00,
2013-07-16 11:23:00,77.6,58.6,29.87,WNW,284,1.0,4.0,52,0.00,,---,0.03,789.00,VWS V14.01,2013-07-16 18:23:00,
2013-07-16 11:25:00,77.6,57.0,29.87,NNW,327,3.0,5.0,49,0.00,,---,0.03,793.00,VWS V14.01,2013-07-16 18:25:00,
2013-07-16 11:28:00,77.5,57.4,29.87,WNW,282,3.0,6.0,50,0.00,,---,0.03,800.00,VWS V14.01,2013-07-16 18:28:00,
2013-07-16 11:30:00,77.4,57.9,29.87,NW,317,5.0,6.0,51,0.00,,---,0.03,798.00,VWS V14.01,2013-07-16 18:30:00,
2013-07-16 11:33:00,77.1,56.5,29.86,WNW,286,5.0,7.0,49,0.00,,---,0.03,810.00,VWS V14.01,2013-07-16 18:33:00,
2013-07-16 11:35:00,77.1,56.5,29.86,NW,312,3.0,7.0,49,0.00,,---,0.03,812.00,VWS V14.01,2013-07-16 18:35:00,
2013-07-16 11:38:00,77.5,57.4,29.87,NW,309,2.0,9.0,50,0.00,,---,0.03,823.00,VWS V14.01,2013-07-16 18:38:00,
2013-07-16 11:40:00,77.5,56.3,29.87,West,268,2.0,9.0,48,0.00,,---,0.03,824.00,VWS V14.01,2013-07-16 18:40:00,
2013-07-16 11:43:00,78.2,58.1,29.87,NW,319,5.0,10.0,50,0.00,,---,0.03,847.00,VWS V14.01,2013-07-16 18:43:00,
2013-07-16 11:45:00,78.2,58.1,29.87,NNW,340,3.0,10.0,50,0.00,,---,0.03,854.00,VWS V14.01,2013-07-16 18:45:00,
2013-07-16 11:48:00,78.6,57.9,29.87,WNW,288,4.0,6.0,49,0.00,,---,0.03,768.00,VWS V14.01,2013-07-16 18:48:00,
2013-07-16 11:50:00,78.6,56.7,29.87,NW,315,3.0,6.0,47,0.00,,---,0.03,798.00,VWS V14.01,2013-07-16 18:50:00,
2013-07-16 11:53:00,78.9,57.6,29.87,North,355,4.0,6.0,48,0.00,,---,0.03,617.00,VWS V14.01,2013-07-16 18:53:00,
2013-07-16 11:55:00,78.9,57.6,29.87,NW,325,5.0,6.0,48,0.00,,---,0.03,563.00,VWS V14.01,2013-07-16 18:55:00,
2013-07-16 11:58:00,78.4,58.2,29.87,WNW,296,4.0,6.0,50,0.00,,---,0.03,330.00,VWS V14.01,2013-07-16 18:58:00,
2013-07-16 12:00:00,78.3,56.4,29.87,West,281,2.0,6.0,47,0.00,,---,0.03,338.00,VWS V14.01,2013-07-16 19:00:00,
2013-07-16 12:03:00,77.6,56.4,29.86,NNW,333,1.0,6.0,48,0.00,,---,0.03,396.00,VWS V14.01,2013-07-16 19:03:00,
2013-07-16 12:05:00,77.6,56.4,29.86,NW,325,2.0,6.0,48,0.00,,---,0.03,396.00,VWS V14.01,2013-07-16 19:05:00,
2013-07-16 12:08:00,77.9,56.1,29.86,NW,305,0.0,4.0,47,0.00,,---,0.03,410.00,VWS V14.01,2013-07-16 19:08:00,
2013-07-16 12:10:00,78.0,57.3,29.86,WNW,298,2.0,4.0,49,0.00,,---,0.03,425.00,VWS V14.01,2013-07-16 19:10:00,
2013-07-16 12:13:00,78.3,56.4,29.87,NW,312,1.0,3.0,47,0.00,,---,0.03,534.00,VWS V14.01,2013-07-16 19:13:00,
2013-07-16 12:15:00,78.5,58.3,29.87,NW,312,2.0,3.0,50,0.00,,---,0.03,534.00,VWS V14.01,2013-07-16 19:15:00,
2013-07-16 12:18:00,79.1,56.6,29.86,NNW,334,3.0,6.0,46,0.00,,---,0.03,406.00,VWS V14.01,2013-07-16 19:18:00,
2013-07-16 12:20:00,79.2,56.7,29.86,NNW,334,2.0,6.0,46,0.00,,---,0.03,380.00,VWS V14.01,2013-07-16 19:20:00,
2013-07-16 12:23:00,79.7,57.7,29.86,NW,313,2.0,5.0,47,0.00,,---,0.03,705.00,VWS V14.01,2013-07-16 19:23:00,
2013-07-16 12:25:00,79.7,55.9,29.86,NW,313,2.0,5.0,44,0.00,,---,0.03,705.00,VWS V14.01,2013-07-16 19:25:00,
2013-07-16 12:28:00,79.6,60.4,29.86,North,360,0.0,6.0,52,0.00,,---,0.03,455.00,VWS V14.01,2013-07-16 19:28:00,
2013-07-16 12:30:00,79.7,59.4,29.86,NW,323,3.0,6.0,50,0.00,,---,0.03,455.00,VWS V14.01,2013-07-16 19:30:00,
2013-07-16 12:33:00,80.0,58.6,29.86,North,360,0.0,4.0,48,0.00,,---,0.03,406.00,VWS V14.01,2013-07-16 19:33:00,
2013-07-16 12:35:00,80.0,58.0,29.86,North,360,1.0,4.0,47,0.00,,---,0.03,422.00,VWS V14.01,2013-07-16 19:35:00,
2013-07-16 12:38:00,80.0,57.4,29.86,North,355,3.0,5.0,46,0.00,,---,0.03,429.00,VWS V14.01,2013-07-16 19:38:00,
2013-07-16 12:40:00,79.9,57.3,29.86,NNW,327,3.0,5.0,46,0.00,,---,0.03,452.00,VWS V14.01,2013-07-16 19:40:00,
2013-07-16 12:43:00,79.8,57.8,29.86,NNW,336,1.0,8.0,47,0.00,,---,0.03,526.00,VWS V14.01,2013-07-16 19:43:00,
2013-07-16 12:45:00,79.8,57.8,29.86,NNW,331,4.0,8.0,47,0.00,,---,0.03,526.00,VWS V14.01,2013-07-16 19:45:00,
2013-07-16 12:48:00,80.1,57.5,29.86,NW,325,5.0,6.0,46,0.00,,---,0.03,526.00,VWS V14.01,2013-07-16 19:48:00,
2013-07-16 12:50:00,80.2,57.6,29.86,NW,323,4.0,6.0,46,0.00,,---,0.03,526.00,VWS V14.01,2013-07-16 19:50:00,
2013-07-16 12:53:00,80.6,56.7,29.86,NW,319,4.0,7.0,44,0.00,,---,0.03,717.00,VWS V14.01,2013-07-16 19:53:00,
2013-07-16 12:55:00,80.6,57.3,29.86,NW,322,4.0,7.0,45,0.00,,---,0.03,717.00,VWS V14.01,2013-07-16 19:55:00,
2013-07-16 12:58:00,80.3,57.0,29.86,NNW,333,4.0,6.0,45,0.00,,---,0.03,587.00,VWS V14.01,2013-07-16 19:58:00,
2013-07-16 13:00:00,80.3,57.0,29.86,NW,325,5.0,7.0,45,0.00,,---,0.03,686.00,VWS V14.01,2013-07-16 20:00:00,
2013-07-16 13:03:00,80.0,55.5,29.86,NW,317,8.0,10.0,43,0.00,,---,0.03,230.00,VWS V14.01,2013-07-16 20:03:00,
2013-07-16 13:05:00,79.9,56.1,29.86,WNW,295,3.0,10.0,44,0.00,,---,0.03,220.00,VWS V14.01,2013-07-16 20:05:00,
2013-07-16 13:08:00,79.4,55.6,29.86,WNW,286,5.0,7.0,44,0.00,,---,0.03,197.00,VWS V14.01,2013-07-16 20:08:00,
2013-07-16 13:10:00,79.4,55.6,29.86,WNW,288,1.0,7.0,44,0.00,,---,0.03,195.00,VWS V14.01,2013-07-16 20:10:00,
2013-07-16 13:13:00,79.4,55.6,29.86,NNW,329,2.0,8.0,44,0.00,,---,0.03,207.00,VWS V14.01,2013-07-16 20:13:00,
2013-07-16 13:15:00,79.3,57.3,29.86,NW,322,4.0,8.0,47,0.00,,---,0.03,218.00,VWS V14.01,2013-07-16 20:15:00,
2013-07-16 13:18:00,79.2,55.4,29.86,West,271,3.0,4.0,44,0.00,,---,0.03,387.00,VWS V14.01,2013-07-16 20:18:00,
2013-07-16 13:19:00,79.3,57.9,29.86,WNW,290,1.0,3.0,48,0.00,,---,0.03,359.00,VWS V14.01,2013-07-16 20:19:00,
2013-07-16 13:20:00,79.3,57.9,29.86,WNW,290,3.0,4.0,48,0.00,,---,0.03,359.00,VWS V14.01,2013-07-16 20:20:00,
2013-07-16 13:24:00,79.7,56.5,29.86,NW,313,5.0,6.0,45,0.00,,---,0.03,392.00,VWS V14.01,2013-07-16 20:24:00,
2013-07-16 13:25:00,79.7,56.5,29.86,NW,313,5.0,6.0,45,0.00,,---,0.03,392.00,VWS V14.01,2013-07-16 20:25:00,
2013-07-16 13:29:00,79.9,56.1,29.86,NNW,332,3.0,4.0,44,0.00,,---,0.03,473.00,VWS V14.01,2013-07-16 20:29:00,
2013-07-16 13:30:00,79.9,56.1,29.86,NW,324,4.0,8.0,44,0.00,,---,0.03,473.00,VWS V14.01,2013-07-16 20:30:00,
2013-07-16 13:34:00,80.1,55.6,29.86,NW,304,5.0,5.0,43,0.00,,---,0.03,652.00,VWS V14.01,2013-07-16 20:34:00,
2013-07-16 13:35:00,80.1,55.6,29.86,West,279,5.0,7.0,43,0.00,,---,0.03,566.00,VWS V14.01,2013-07-16 20:35:00,
2013-07-16 13:39:00,80.7,58.0,29.85,NNW,329,5.0,7.0,46,0.00,,---,0.03,942.00,VWS V14.01,2013-07-16 20:39:00,
2013-07-16 13:40:00,80.7,58.0,29.85,NNW,329,5.0,7.0,46,0.00,,---,0.03,942.00,VWS V14.01,2013-07-16 20:40:00,
2013-07-16 13:44:00,81.1,57.2,29.85,NNW,333,2.0,11.0,44,0.00,,---,0.03,942.00,VWS V14.01,2013-07-16 20:44:00,
2013-07-16 13:45:00,81.1,57.2,29.85,NNW,333,2.0,11.0,44,0.00,,---,0.03,942.00,VWS V14.01,2013-07-16 20:45:00,
2013-07-16 13:49:00,81.1,56.5,29.85,NW,313,9.0,9.0,43,0.00,,---,0.03,571.00,VWS V14.01,2013-07-16 20:49:00,
2013-07-16 13:50:00,81.1,56.5,29.85,NW,313,9.0,9.0,43,0.00,,---,0.03,571.00,VWS V14.01,2013-07-16 20:50:00,
2013-07-16 13:54:00,80.9,56.3,29.85,NW,305,4.0,10.0,43,0.00,,---,0.03,394.00,VWS V14.01,2013-07-16 20:54:00,
2013-07-16 13:55:00,80.9,56.3,29.85,NW,305,4.0,10.0,43,0.00,,---,0.03,394.00,VWS V14.01,2013-07-16 20:55:00,
2013-07-16 13:59:00,80.8,56.9,29.85,NNW,348,3.0,5.0,44,0.00,,---,0.03,478.00,VWS V14.01,2013-07-16 20:59:00,
2013-07-16 14:00:00,80.8,56.9,29.85,NNW,348,3.0,5.0,44,0.00,,---,0.03,478.00,VWS V14.01,2013-07-16 21:00:00,
2013-07-16 14:04:00,81.4,56.8,29.84,West,271,4.0,6.0,43,0.00,,---,0.03,362.00,VWS V14.01,2013-07-16 21:04:00,
2013-07-16 14:05:00,81.4,56.8,29.84,West,271,4.0,6.0,43,0.00,,---,0.03,362.00,VWS V14.01,2013-07-16 21:05:00,
2013-07-16 14:09:00,81.2,57.9,29.84,WNW,290,4.0,6.0,45,0.00,,---,0.03,366.00,VWS V14.01,2013-07-16 21:09:00,
2013-07-16 14:10:00,81.2,57.9,29.84,WNW,290,4.0,6.0,45,0.00,,---,0.03,366.00,VWS V14.01,2013-07-16 21:10:00,
2013-07-16 14:14:00,81.2,57.2,29.84,NNW,334,7.0,7.0,44,0.00,,---,0.03,394.00,VWS V14.01,2013-07-16 21:14:00,
2013-07-16 14:15:00,81.1,57.2,29.84,NNW,336,3.0,7.0,44,0.00,,---,0.03,411.00,VWS V14.01,2013-07-16 21:15:00,
2013-07-16 14:19:00,81.1,58.4,29.84,North,355,0.0,0.0,46,0.00,,---,0.03,476.00,VWS V14.01,2013-07-16 21:19:00,
2013-07-16 14:20:00,81.1,58.4,29.84,North,355,0.0,7.0,46,0.00,,---,0.03,476.00,VWS V14.01,2013-07-16 21:20:00,
2013-07-16 14:24:00,81.5,56.9,29.84,WNW,296,4.0,4.0,43,0.00,,---,0.03,633.00,VWS V14.01,2013-07-16 21:24:00,
2013-07-16 14:25:00,81.5,57.5,29.84,NW,313,3.0,7.0,44,0.00,,---,0.03,633.00,VWS V14.01,2013-07-16 21:25:00,
2013-07-16 14:29:00,82.5,53.6,29.84,NW,324,3.0,5.0,37,0.00,,---,0.03,1195.00,VWS V14.01,2013-07-16 21:29:00,
2013-07-16 14:30:00,82.4,54.3,29.84,NW,326,5.0,7.0,38,0.00,,---,0.03,1195.00,VWS V14.01,2013-07-16 21:30:00,
2013-07-16 14:34:00,83.2,54.2,29.84,NW,321,5.0,5.0,37,0.00,,---,0.03,956.00,VWS V14.01,2013-07-16 21:34:00,
2013-07-16 14:35:00,83.1,54.2,29.84,North,355,4.0,8.0,37,0.00,,---,0.03,956.00,VWS V14.01,2013-07-16 21:35:00,
2013-07-16 14:39:00,83.0,56.9,29.84,West,280,3.0,4.0,41,0.00,,---,0.03,911.00,VWS V14.01,2013-07-16 21:39:00,
2013-07-16 14:40:00,83.0,56.9,29.84,West,281,4.0,8.0,41,0.00,,---,0.03,911.00,VWS V14.01,2013-07-16 21:40:00,
2013-07-16 14:44:00,82.8,58.7,29.84,NNW,327,2.0,4.0,44,0.00,,---,0.03,865.00,VWS V14.01,2013-07-16 21:44:00,
2013-07-16 14:45:00,82.8,58.7,29.84,NW,310,4.0,5.0,44,0.00,,---,0.03,780.00,VWS V14.01,2013-07-16 21:45:00,
2013-07-16 14:49:00,83.2,55.7,29.84,NW,313,2.0,2.0,39,0.00,,---,0.03,816.00,VWS V14.01,2013-07-16 21:49:00,
2013-07-16 14:50:00,83.2,55.7,29.84,NW,313,2.0,2.0,39,0.00,,---,0.03,816.00,VWS V14.01,2013-07-16 21:50:00,
2013-07-16 14:55:00,83.7,55.4,29.83,WNW,296,5.0,5.0,38,0.00,,---,0.03,485.00,VWS V14.01,2013-07-16 21:55:00,
2013-07-16 15:00:00,84.0,59.1,29.83,NW,310,6.0,6.0,43,0.00,,---,0.03,863.00,VWS V14.01,2013-07-16 22:00:00,
2013-07-16 15:05:00,83.7,54.7,29.83,WNW,299,2.0,4.0,37,0.00,,---,0.03,930.00,VWS V14.01,2013-07-16 22:05:00,
2013-07-16 15:10:00,83.7,53.9,29.83,NW,321,3.0,7.0,36,0.00,,---,0.03,954.00,VWS V14.01,2013-07-16 22:10:00,
2013-07-16 15:15:00,83.8,56.2,29.83,NW,315,8.0,8.0,39,0.00,,---,0.03,770.00,VWS V14.01,2013-07-16 22:15:00,
2013-07-16 15:20:00,83.7,55.4,29.83,WNW,298,2.0,2.0,38,0.00,,---,0.03,446.00,VWS V14.01,2013-07-16 22:20:00,
2013-07-16 15:25:00,83.6,55.3,29.83,WNW,299,1.0,2.0,38,0.00,,---,0.03,543.00,VWS V14.01,2013-07-16 22:25:00,
2013-07-16 15:30:00,84.0,56.4,29.83,NW,304,1.0,3.0,39,0.00,,---,0.03,353.00,VWS V14.01,2013-07-16 22:30:00,
2013-07-16 15:35:00,83.5,54.5,29.83,WNW,297,7.0,9.0,37,0.00,,---,0.03,253.00,VWS V14.01,2013-07-16 22:35:00,
2013-07-16 15:40:00,82.6,53.7,29.83,WNW,293,5.0,5.0,37,0.00,,---,0.03,220.00,VWS V14.01,2013-07-16 22:40:00,
2013-07-16 15:45:00,82.0,53.2,29.84,NW,307,3.0,5.0,37,0.00,,---,0.03,192.00,VWS V14.01,2013-07-16 22:45:00,
2013-07-16 15:50:00,81.7,54.4,29.84,NW,323,6.0,7.0,39,0.00,,---,0.03,176.00,VWS V14.01,2013-07-16 22:50:00,
2013-07-16 15:55:00,81.3,54.7,29.85,NW,324,5.0,6.0,40,0.00,,---,0.03,174.00,VWS V14.01,2013-07-16 22:55:00,
2013-07-16 16:00:00,81.2,56.0,29.85,NNW,346,5.0,7.0,42,0.00,,---,0.03,149.00,VWS V14.01,2013-07-16 23:00:00,
2013-07-16 16:05:00,80.9,55.0,29.86,NW,309,3.0,7.0,41,0.00,,---,0.03,169.00,VWS V14.01,2013-07-16 23:05:00,
2013-07-16 16:10:00,80.9,55.0,29.85,NNW,334,1.0,4.0,41,0.00,,---,0.03,221.00,VWS V14.01,2013-07-16 23:10:00,
2013-07-16 16:15:00,80.9,56.3,29.86,NNW,348,2.0,3.0,43,0.00,,---,0.03,258.00,VWS V14.01,2013-07-16 23:15:00,
2013-07-16 16:20:00,81.1,55.9,29.86,NW,325,1.0,4.0,42,0.00,,---,0.03,264.00,VWS V14.01,2013-07-16 23:20:00,
2013-07-16 16:25:00,81.3,57.3,29.86,NNW,338,2.0,3.0,44,0.00,,---,0.03,248.00,VWS V14.01,2013-07-16 23:25:00,
2013-07-16 16:30:00,81.4,58.7,29.86,NNW,340,1.0,5.0,46,0.00,,---,0.03,221.00,VWS V14.01,2013-07-16 23:30:00,
2013-07-16 16:35:00,81.0,57.1,29.85,NNW,346,3.0,3.0,44,0.00,,---,0.03,172.00,VWS V14.01,2013-07-16 23:35:00,
2013-07-16 16:40:00,80.8,55.6,29.85,NNW,335,1.0,3.0,42,0.00,,---,0.03,142.00,VWS V14.01,2013-07-16 23:40:00,
2013-07-16 16:45:00,80.2,57.6,29.84,NNW,341,5.0,5.0,46,0.00,,---,0.03,141.00,VWS V14.01,2013-07-16 23:45:00,
2013-07-16 16:50:00,79.9,56.1,29.84,NW,309,7.0,7.0,44,0.00,,---,0.03,111.00,VWS V14.01,2013-07-16 23:50:00,
2013-07-16 16:55:00,79.6,55.2,29.84,NW,318,5.0,6.0,43,0.00,,---,0.03,90.00,VWS V14.01,2013-07-16 23:55:00,
2013-07-16 17:00:00,79.1,56.0,29.84,NE,45,0.0,0.0,45,0.00,,---,0.03,105.00,VWS V14.01,2013-07-17 00:00:00,
2013-07-16 17:05:00,79.1,56.6,29.84,NE,42,1.0,1.0,46,0.00,,---,0.03,81.00,VWS V14.01,2013-07-17 00:05:00,
2013-07-16 17:10:00,78.7,56.2,29.84,NE,42,2.0,2.0,46,0.00,,---,0.03,62.00,VWS V14.01,2013-07-17 00:10:00,
2013-07-16 17:15:00,78.7,55.6,29.84,NE,42,0.0,0.0,45,0.00,,---,0.03,63.00,VWS V14.01,2013-07-17 00:15:00,
2013-07-16 17:20:00,78.9,56.4,29.84,NE,51,0.0,0.0,46,0.00,,---,0.03,51.00,VWS V14.01,2013-07-17 00:20:00,
2013-07-16 17:25:00,79.0,56.5,29.83,North,360,2.0,3.0,46,0.00,,---,0.03,56.00,VWS V14.01,2013-07-17 00:25:00,
2013-07-16 17:30:00,78.7,58.0,29.82,NNW,348,1.0,3.0,49,0.00,,---,0.03,114.00,VWS V14.01,2013-07-17 00:30:00,
2013-07-16 17:35:00,78.7,58.0,29.83,WNW,290,0.0,1.0,49,0.00,,---,0.03,149.00,VWS V14.01,2013-07-17 00:35:00,
2013-07-16 17:40:00,79.2,56.7,29.83,WNW,290,0.0,0.0,46,0.00,,---,0.03,181.00,VWS V14.01,2013-07-17 00:40:00,
2013-07-16 17:45:00,79.8,57.2,29.83,NNE,22,1.0,1.0,46,0.00,,---,0.03,141.00,VWS V14.01,2013-07-17 00:45:00,
2013-07-16 17:50:00,79.9,57.9,29.83,NNE,19,0.0,1.0,47,0.00,,---,0.03,120.00,VWS V14.01,2013-07-17 00:50:00,
2013-07-16 17:55:00,79.9,56.7,29.83,NE,36,0.0,2.0,45,0.00,,---,0.03,134.00,VWS V14.01,2013-07-17 00:55:00,
2013-07-16 18:00:00,80.1,56.9,29.83,NE,36,0.0,2.0,45,0.00,,---,0.03,130.00,VWS V14.01,2013-07-17 01:00:00,
2013-07-16 18:05:00,80.2,57.6,29.83,NNE,28,1.0,2.0,46,0.00,,---,0.03,132.00,VWS V14.01,2013-07-17 01:05:00,
2013-07-16 18:10:00,80.2,56.3,29.83,North,5,3.0,3.0,44,0.00,,---,0.03,176.00,VWS V14.01,2013-07-17 01:10:00,
2013-07-16 18:15:00,80.6,56.7,29.82,NE,49,0.0,1.0,44,0.00,,---,0.03,274.00,VWS V14.01,2013-07-17 01:15:00,
2013-07-16 18:20:00,80.9,58.2,29.82,NNE,30,4.0,4.0,46,0.00,,---,0.03,220.00,VWS V14.01,2013-07-17 01:20:00,
2013-07-16 18:25:00,81.1,57.8,29.81,North,11,1.0,4.0,45,0.00,,---,0.03,162.00,VWS V14.01,2013-07-17 01:25:00,
2013-07-16 18:30:00,80.9,57.0,29.81,NNE,30,2.0,4.0,44,0.00,,---,0.03,109.00,VWS V14.01,2013-07-17 01:30:00,
2013-07-16 18:35:00,80.7,58.0,29.81,NNE,24,1.0,3.0,46,0.00,,---,0.03,121.00,VWS V14.01,2013-07-17 01:35:00,
2013-07-16 18:40:00,80.4,57.8,29.81,NNE,16,4.0,4.0,46,0.00,,---,0.03,192.00,VWS V14.01,2013-07-17 01:40:00,
2013-07-16 18:45:00,80.5,58.4,29.81,NNE,17,1.0,1.0,47,0.00,,---,0.03,350.00,VWS V14.01,2013-07-17 01:45:00,
2013-07-16 18:50:00,81.3,59.2,29.80,North,5,1.0,6.0,47,0.00,,---,0.03,385.00,VWS V14.01,2013-07-17 01:50:00,
2013-07-16 18:55:00,81.6,60.0,29.80,North,360,5.0,5.0,48,0.00,,---,0.03,369.00,VWS V14.01,2013-07-17 01:55:00,
2013-07-16 19:00:00,81.6,60.6,29.81,North,360,5.0,5.0,49,0.00,,---,0.03,355.00,VWS V14.01,2013-07-17 02:00:00,
2013-07-16 19:05:00,81.6,59.4,29.81,North,11,8.0,8.0,47,0.00,,---,0.03,239.00,VWS V14.01,2013-07-17 02:05:00,
2013-07-16 19:10:00,81.4,59.3,29.82,NNW,327,4.0,5.0,47,0.00,,---,0.03,125.00,VWS V14.01,2013-07-17 02:10:00,
2013-07-16 19:15:00,80.6,58.5,29.82,NNE,13,3.0,5.0,47,0.00,,---,0.03,98.00,VWS V14.01,2013-07-17 02:15:00,
2013-07-16 19:20:00,80.0,58.6,29.81,NNW,333,3.0,4.0,48,0.00,,---,0.03,79.00,VWS V14.01,2013-07-17 02:20:00,
2013-07-16 19:25:00,79.5,58.1,29.81,NE,36,0.0,2.0,48,0.00,,---,0.03,65.00,VWS V14.01,2013-07-17 02:25:00,
2013-07-16 19:30:00,79.1,57.2,29.82,NE,40,1.0,4.0,47,0.00,,---,0.03,72.00,VWS V14.01,2013-07-17 02:30:00,
2013-07-16 19:35:00,78.9,57.6,29.81,NNE,30,1.0,1.0,48,0.00,,---,0.03,65.00,VWS V14.01,2013-07-17 02:35:00,
2013-07-16 19:40:00,78.8,57.5,29.81,NNE,30,0.0,1.0,48,0.00,,---,0.03,44.00,VWS V14.01,2013-07-17 02:40:00,
2013-07-16 19:45:00,78.8,57.5,29.82,NNE,15,0.0,4.0,48,0.00,,---,0.03,37.00,VWS V14.01,2013-07-17 02:45:00,
2013-07-16 19:50:00,78.5,57.8,29.82,North,350,0.0,1.0,49,0.00,,---,0.03,33.00,VWS V14.01,2013-07-17 02:50:00,
2013-07-16 19:55:00,78.3,57.0,29.82,North,350,0.0,2.0,48,0.00,,---,0.03,26.00,VWS V14.01,2013-07-17 02:55:00,
2013-07-16 20:00:00,78.2,57.5,29.83,North,350,0.0,0.0,49,0.00,,---,0.03,23.00,VWS V14.01,2013-07-17 03:00:00,
2013-07-16 20:05:00,78.1,57.4,29.83,North,350,0.0,0.0,49,0.00,,---,0.03,30.00,VWS V14.01,2013-07-17 03:05:00,
2013-07-16 20:10:00,78.1,58.0,29.83,North,350,0.0,1.0,50,0.00,,---,0.03,47.00,VWS V14.01,2013-07-17 03:10:00,
2013-07-16 20:15:00,78.0,58.4,29.84,North,350,0.0,0.0,51,0.00,,---,0.03,26.00,VWS V14.01,2013-07-17 03:15:00,
2013-07-16 20:20:00,77.6,58.6,29.83,North,350,0.0,1.0,52,0.00,,---,0.03,14.00,VWS V14.01,2013-07-17 03:20:00,
2013-07-16 20:25:00,76.8,58.4,29.83,North,350,0.0,1.0,53,0.00,,---,0.03,14.00,VWS V14.01,2013-07-17 03:25:00,
2013-07-16 20:30:00,76.6,57.1,29.83,North,360,0.0,0.0,51,0.00,,---,0.03,16.00,VWS V14.01,2013-07-17 03:30:00,
2013-07-16 20:35:00,76.5,57.6,29.83,North,360,0.0,1.0,52,0.00,,---,0.03,12.00,VWS V14.01,2013-07-17 03:35:00,
2013-07-16 20:40:00,76.3,57.4,29.84,North,355,1.0,1.0,52,0.00,,---,0.03,9.00,VWS V14.01,2013-07-17 03:40:00,
2013-07-16 20:45:00,76.0,56.0,29.84,NW,307,1.0,4.0,50,0.00,,---,0.03,9.00,VWS V14.01,2013-07-17 03:45:00,
2013-07-16 20:50:00,75.7,56.3,29.84,NW,304,3.0,4.0,51,0.00,,---,0.03,7.00,VWS V14.01,2013-07-17 03:50:00,
2013-07-16 20:55:00,75.5,55.0,29.84,NNW,330,0.0,0.0,49,0.00,,---,0.03,5.00,VWS V14.01,2013-07-17 03:55:00,
2013-07-16 21:00:00,75.3,55.4,29.84,NNW,331,0.0,0.0,50,0.00,,---,0.03,0.00,VWS V14.01,2013-07-17 04:00:00,
2013-07-16 21:01:00,75.3,55.4,29.84,NNW,330,0.0,0.0,50,0.00,,---,0.03,0.00,VWS V14.01,2013-07-17 04:01:00,
2013-07-16 21:05:00,75.3,55.4,29.85,NNW,330,0.0,0.0,50,0.00,,---,0.03,0.00,VWS V14.01,2013-07-17 04:05:00,
2013-07-16 21:06:00,75.3,55.4,29.85,NNW,330,0.0,0.0,50,0.00,,---,0.03,0.00,VWS V14.01,2013-07-17 04:06:00,
2013-07-16 21:10:00,75.3,55.4,29.85,NNW,335,0.0,1.0,50,0.00,,---,0.03,0.00,VWS V14.01,2013-07-17 04:10:00,
2013-07-16 21:11:00,75.2,55.8,29.85,NNW,335,0.0,0.0,51,0.00,,---,0.03,0.00,VWS V14.01,2013-07-17 04:11:00,
2013-07-16 21:15:00,75.1,55.2,29.85,NNW,335,0.0,0.0,50,0.00,,---,0.03,0.00,VWS V14.01,2013-07-17 04:15:00,
2013-07-16 21:16:00,75.0,55.1,29.86,NNW,335,0.0,0.0,50,0.00,,---,0.03,0.00,VWS V14.01,2013-07-17 04:16:00,
2013-07-16 21:20:00,74.8,56.0,29.86,NNW,335,0.0,0.0,52,0.00,,---,0.03,0.00,VWS V14.01,2013-07-17 04:20:00,
2013-07-16 21:21:00,74.7,55.9,29.86,NNW,335,0.0,0.0,52,0.00,,---,0.03,0.00,VWS V14.01,2013-07-17 04:21:00,
2013-07-16 21:25:00,74.5,55.7,29.85,NNW,335,0.0,0.0,52,0.00,,---,0.03,0.00,VWS V14.01,2013-07-17 04:25:00,
2013-07-16 21:26:00,74.5,55.7,29.85,NNW,335,0.0,0.0,52,0.00,,---,0.03,0.00,VWS V14.01,2013-07-17 04:26:00,
2013-07-16 21:30:00,74.4,55.7,29.85,NNW,335,0.0,0.0,52,0.00,,---,0.03,0.00,VWS V14.01,2013-07-17 04:30:00,
2013-07-16 21:31:00,74.3,56.1,29.85,NNW,335,0.0,0.0,53,0.00,,---,0.03,0.00,VWS V14.01,2013-07-17 04:31:00,
2013-07-16 21:35:00,74.1,56.9,29.85,NNW,335,0.0,0.0,55,0.00,,---,0.03,0.00,VWS V14.01,2013-07-17 04:35:00,
2013-07-16 21:36:00,74.0,56.3,29.86,NNW,335,0.0,0.0,54,0.00,,---,0.03,0.00,VWS V14.01,2013-07-17 04:36:00,
2013-07-16 21:40:00,73.9,56.7,29.86,NNW,335,0.0,0.0,55,0.00,,---,0.03,0.00,VWS V14.01,2013-07-17 04:40:00,
2013-07-16 21:42:00,73.8,56.1,29.86,NNW,335,0.0,0.0,54,0.00,,---,0.03,0.00,VWS V14.01,2013-07-17 04:42:00,
2013-07-16 21:45:00,73.7,56.5,29.86,NNW,335,0.0,1.0,55,0.00,,---,0.03,0.00,VWS V14.01,2013-07-17 04:45:00,
2013-07-16 21:46:00,73.6,56.5,29.86,NNW,335,0.0,0.0,55,0.00,,---,0.03,0.00,VWS V14.01,2013-07-17 04:46:00,
2013-07-16 21:50:00,73.5,56.4,29.86,NNW,335,0.0,0.0,55,0.00,,---,0.03,0.00,VWS V14.01,2013-07-17 04:50:00,
2013-07-16 21:52:00,73.5,56.4,29.86,NNW,335,0.0,0.0,55,0.00,,---,0.03,0.00,VWS V14.01,2013-07-17 04:52:00,
2013-07-16 21:55:00,73.5,56.9,29.86,NNW,335,0.0,0.0,56,0.00,,---,0.03,0.00,VWS V14.01,2013-07-17 04:55:00,
2013-07-16 21:59:00,73.3,56.7,29.86,NNW,335,0.0,0.0,56,0.00,,---,0.03,0.00,VWS V14.01,2013-07-17 04:59:00,
2013-07-16 22:00:00,73.3,56.7,29.86,NNW,335,0.0,0.0,56,0.00,,---,0.03,0.00,VWS V14.01,2013-07-17 05:00:00,
2013-07-16 22:04:00,72.9,56.8,29.87,NNW,335,0.0,0.0,57,0.00,,---,0.03,0.00,VWS V14.01,2013-07-17 05:04:00,
2013-07-16 22:05:00,72.9,56.8,29.87,NNW,335,0.0,0.0,57,0.00,,---,0.03,0.00,VWS V14.01,2013-07-17 05:05:00,
2013-07-16 22:09:00,72.9,57.8,29.87,NNW,335,0.0,0.0,59,0.00,,---,0.03,0.00,VWS V14.01,2013-07-17 05:09:00,
2013-07-16 22:10:00,72.9,57.8,29.87,NNW,335,0.0,0.0,59,0.00,,---,0.03,0.00,VWS V14.01,2013-07-17 05:10:00,
2013-07-16 22:14:00,72.8,57.7,29.86,NNW,335,0.0,0.0,59,0.00,,---,0.03,0.00,VWS V14.01,2013-07-17 05:14:00,
2013-07-16 22:15:00,72.7,57.6,29.86,NNW,335,0.0,0.0,59,0.00,,---,0.03,0.00,VWS V14.01,2013-07-17 05:15:00,
2013-07-16 22:19:00,72.4,56.8,29.87,NNW,335,1.0,1.0,58,0.00,,---,0.03,0.00,VWS V14.01,2013-07-17 05:19:00,
2013-07-16 22:20:00,72.4,56.8,29.87,NNW,335,0.0,1.0,58,0.00,,---,0.03,0.00,VWS V14.01,2013-07-17 05:20:00,
2013-07-16 22:24:00,72.5,57.4,29.88,NNW,335,0.0,1.0,59,0.00,,---,0.03,0.00,VWS V14.01,2013-07-17 05:24:00,
2013-07-16 22:25:00,72.5,57.4,29.88,NNW,335,0.0,1.0,59,0.00,,---,0.03,0.00,VWS V14.01,2013-07-17 05:25:00,
2013-07-16 22:29:00,72.3,59.0,29.88,NNW,335,0.0,0.0,63,0.00,,---,0.03,0.00,VWS V14.01,2013-07-17 05:29:00,
2013-07-16 22:30:00,72.2,58.9,29.88,NNW,335,0.0,0.0,63,0.00,,---,0.03,0.00,VWS V14.01,2013-07-17 05:30:00,
2013-07-16 22:34:00,71.4,58.2,29.88,NNW,335,0.0,0.0,63,0.00,,---,0.03,0.00,VWS V14.01,2013-07-17 05:34:00,
2013-07-16 22:35:00,71.3,58.1,29.88,NNW,335,0.0,0.0,63,0.00,,---,0.03,0.00,VWS V14.01,2013-07-17 05:35:00,
2013-07-16 22:39:00,71.0,57.3,29.88,NNW,335,0.0,0.0,62,0.00,,---,0.03,0.00,VWS V14.01,2013-07-17 05:39:00,
2013-07-16 22:40:00,71.0,57.8,29.88,NNW,335,0.0,0.0,63,0.00,,---,0.03,0.00,VWS V14.01,2013-07-17 05:40:00,
2013-07-16 22:44:00,71.0,57.3,29.88,NNW,335,0.0,1.0,62,0.00,,---,0.03,0.00,VWS V14.01,2013-07-17 05:44:00,
2013-07-16 22:45:00,71.0,57.8,29.88,NNW,335,0.0,1.0,63,0.00,,---,0.03,0.00,VWS V14.01,2013-07-17 05:45:00,
2013-07-16 22:49:00,71.2,57.1,29.88,NNW,336,0.0,1.0,61,0.00,,---,0.03,0.00,VWS V14.01,2013-07-17 05:49:00,
2013-07-16 22:50:00,71.2,57.1,29.88,NNW,336,0.0,1.0,61,0.00,,---,0.03,0.00,VWS V14.01,2013-07-17 05:50:00,
2013-07-16 22:54:00,71.4,57.3,29.87,NNW,336,1.0,1.0,61,0.00,,---,0.03,0.00,VWS V14.01,2013-07-17 05:54:00,
2013-07-16 22:55:00,71.4,57.3,29.87,NNW,336,0.0,1.0,61,0.00,,---,0.03,0.00,VWS V14.01,2013-07-17 05:55:00,
2013-07-16 22:59:00,71.3,57.2,29.87,NE,40,1.0,1.0,61,0.00,,---,0.03,0.00,VWS V14.01,2013-07-17 05:59:00,
2013-07-16 23:00:00,71.3,57.2,29.87,NE,40,1.0,1.0,61,0.00,,---,0.03,0.00,VWS V14.01,2013-07-17 06:00:00,
2013-07-16 23:04:00,71.5,57.4,29.87,NE,40,0.0,2.0,61,0.00,,---,0.03,0.00,VWS V14.01,2013-07-17 06:04:00,
2013-07-16 23:05:00,71.5,57.4,29.87,NE,40,0.0,2.0,61,0.00,,---,0.03,0.00,VWS V14.01,2013-07-17 06:05:00,
2013-07-16 23:09:00,71.5,58.3,29.87,NE,40,0.0,1.0,63,0.00,,---,0.03,0.00,VWS V14.01,2013-07-17 06:09:00,
2013-07-16 23:10:00,71.5,58.3,29.87,NE,40,0.0,1.0,63,0.00,,---,0.03,0.00,VWS V14.01,2013-07-17 06:10:00,
2013-07-16 23:14:00,71.2,58.0,29.87,NE,40,0.0,2.0,63,0.00,,---,0.03,0.00,VWS V14.01,2013-07-17 06:14:00,
2013-07-16 23:15:00,71.2,58.0,29.88,NE,40,0.0,2.0,63,0.00,,---,0.03,0.00,VWS V14.01,2013-07-17 06:15:00,
2013-07-16 23:19:00,71.2,58.8,29.88,SW,219,3.0,4.0,65,0.00,,---,0.03,0.00,VWS V14.01,2013-07-17 06:19:00,
2013-07-16 23:20:00,71.2,59.3,29.88,SW,218,3.0,4.0,66,0.00,,---,0.03,0.00,VWS V14.01,2013-07-17 06:20:00,
2013-07-16 23:24:00,70.5,58.6,29.88,South,173,0.0,3.0,66,0.00,,---,0.03,0.00,VWS V14.01,2013-07-17 06:24:00,
2013-07-16 23:25:00,70.4,58.5,29.88,South,172,0.0,3.0,66,0.00,,---,0.03,0.00,VWS V14.01,2013-07-17 06:25:00,
2013-07-16 23:29:00,70.1,58.2,29.89,SSW,202,2.0,3.0,66,0.00,,---,0.03,0.00,VWS V14.01,2013-07-17 06:29:00,
2013-07-16 23:30:00,70.1,58.2,29.89,SSW,202,3.0,3.0,66,0.00,,---,0.03,0.00,VWS V14.01,2013-07-17 06:30:00,
2013-07-16 23:34:00,69.9,58.5,29.89,South,170,1.0,3.0,67,0.00,,---,0.03,0.00,VWS V14.01,2013-07-17 06:34:00,
2013-07-16 23:35:00,69.9,58.5,29.89,SSE,165,1.0,3.0,67,0.00,,---,0.03,0.00,VWS V14.01,2013-07-17 06:35:00,
2013-07-16 23:39:00,69.8,57.9,29.90,ESE,114,0.0,1.0,66,0.00,,---,0.03,0.00,VWS V14.01,2013-07-17 06:39:00,
2013-07-16 23:40:00,69.9,58.0,29.90,ESE,114,0.0,1.0,66,0.00,,---,0.03,0.00,VWS V14.01,2013-07-17 06:40:00,
2013-07-16 23:44:00,70.2,57.9,29.90,ESE,114,0.0,0.0,65,0.00,,---,0.03,0.00,VWS V14.01,2013-07-17 06:44:00,
2013-07-16 23:45:00,70.2,57.9,29.90,ESE,114,0.0,0.0,65,0.00,,---,0.03,0.00,VWS V14.01,2013-07-17 06:45:00,
2013-07-16 23:49:00,70.2,57.9,29.90,ESE,114,0.0,0.0,65,0.00,,---,0.03,0.00,VWS V14.01,2013-07-17 06:49:00,
2013-07-16 23:50:00,70.2,57.9,29.90,ESE,114,0.0,0.0,65,0.00,,---,0.03,0.00,VWS V14.01,2013-07-17 06:50:00,
2013-07-16 23:54:00,69.8,57.9,29.90,SE,146,2.0,2.0,66,0.00,,---,0.03,0.00,VWS V14.01,2013-07-17 06:54:00,
2013-07-16 23:55:00,69.8,57.9,29.90,SE,146,1.0,2.0,66,0.00,,---,0.03,0.00,VWS V14.01,2013-07-17 06:55:00,
2013-07-16 23:59:00,70.1,57.8,29.90,SSE,153,1.0,3.0,65,0.00,,---,0.03,0.00,VWS V14.01,2013-07-17 06:59:00,